Regional Weather Roundup
Issued by NWS

Home | Current Version | Previous Version | Text Only | Print | Product List | Glossary Off
Versions: 1 2 3 4 5 6 7 8 9 10 11 12 13 14 15 16 17 18 19 20 21 22 23 24 25 26 27 28 29 30 31 32 33 34 35 36 37 38 39 40 41 42 43 44 45 46 47 48 49 50

000
ASUS43 KLSX 301257
RWRMO

WEATHER SUMMARY FOR MISSOURI
NATIONAL WEATHER SERVICE SPRINGFIELD MO
800 AM CDT THU MAR 30 2017

NOTE: "FAIR" INDICATES FEW OR NO CLOUDS BELOW 12,000 FEET WITH NO
       SIGNIFICANT WEATHER AND/OR OBSTRUCTIONS TO VISIBILITY.
       CURRENT SKY AND/OR WEATHER CONDITIONS ARE NOT AVAILABLE FOR
       CHILLICOTHE AND FARMINGTON.

MOZ001>031-035>038-043-044-053-054-301400-
...NORTHERN AND WESTERN MISSOURI...

CITY           SKY/WX    TMP DP  RH WIND       PRES   REMARKS
KANSAS CTY INT CLOUDY    48  46  93 S5        29.57R
LEE`S SUMMIT   CLOUDY    48  45  89 S10       29.57S
ST JOSEPH      LGT RAIN  48  48 100 N9        29.59R FOG
CHILLICOTHE      N/A     49  48  97 VRB3      29.59R
KIRKSVILLE     CLOUDY    48  48 100 E8        29.59S FOG

$$
MOZ066>068-077>081-088>096-101>105-301400-
...SOUTHWEST MISSOURI...

CITY           SKY/WX    TMP DP  RH WIND       PRES   REMARKS
SPRINGFIELD    CLOUDY    48  42  80 SW18G24   29.62R
JOPLIN         CLOUDY    46  44  93 SW16G24   29.62S FOG
BRANSON        PTSUNNY   46  39  76 SW9G16    29.66R

$$
MOZ032>034-039>042-045>050-055>058-069>072-301400-
...CENTRAL MISSOURI...

CITY           SKY/WX    TMP DP  RH WIND       PRES   REMARKS
COLUMBIA       NOT AVBL
JEFFERSON CITY PTSUNNY   60  53  77 NW12      29.57F
ROLLA          MOSUNNY   57  56  96 E5        29.55F
SEDALIA        CLOUDY    50  44  80 SW13      29.61R
WARRENSBURG    CLOUDY    46  43  87 SE6       29.59R

$$
MOZ051-052-059>065-301400-
...EAST CENTRAL MISSOURI...

CITY           SKY/WX    TMP DP  RH WIND       PRES   REMARKS
ST LOUIS INTL  LGT RAIN  62  59  90 S6        29.58F
SPIRIT OF STL  LGT RAIN  61  61 100 S5        29.58S FOG
ST CHARLES     LGT RAIN  59  59 100 SE5       29.57F FOG

$$
MOZ072>076-082>087-097>100-106>115-301400-
...SOUTH CENTRAL AND SOUTHEAST MISSOURI...

CITY           SKY/WX    TMP DP  RH WIND       PRES   REMARKS
CAPE GIRARDEAU CLOUDY    64  57  78 S16G23    29.65S
POPLAR BLUFF   CLOUDY    65  59  81 S17G28    29.64S
WEST PLAINS      N/A     59  57  93 S7        29.62R

$$


USA.gov is the U.S. government's official web portal to all federal, state and local government web resources and services.